Location: Seattle
(47.6064°N, 122.3308°W)
Time: 03:46:01
(UTC-08:00)

N. Korean satellite - Pass Details

Date: 30 October 2020
Orbit: 453 x 503 km, 97.2° (Epoch: 03 December)

Event Time Altitude Azimuth Distance (km) Brightness Sun altitude
Rises 18:41:20 0° 201° (SSW) 2,534 10.7 -8.5°
Reaches altitude 10° 18:43:51 10° 220° (SW) 1,649 10.1 -8.9°
Maximum altitude 18:46:26 19° 267° (W) 1,195 9.8 -9.4°
Drops below altitude 10° 18:49:00 10° 314° (NW) 1,639 9.8 -9.8°
Sets 18:51:30 0° 333° (NNW) 2,512 10.4 -10.2°
